Location: Staunton
(38.1490°N, 79.0720°W)
Time: 23:43:00
(UTC-05:00)

ISS - Pass Details

Date: 27 November 2020
Orbit: 418 x 421 km, 51.6° (Epoch: 26 November)

Event Time Altitude Azimuth Distance (km) Brightness Sun altitude
Rises 17:34:04 0° 285° (WNW) 2,358 1.0 -7.4°
Reaches altitude 10° 17:37:14 10° 318° (NW) 1,496 -0.7 -8.0°
Maximum altitude 17:38:40 12° 343° (NNW) 1,373 -1.2 -8.2°
Drops below altitude 10° 17:40:05 10° 8° (N) 1,498 -1.2 -8.5°
Enters shadow 17:41:34 - 27° (NNE) 1,836 -0.9 -8.8°
